Location: Austin
(30.3000°N, 97.7500°W)
Time: 06:31:27
(UTC-05:00)

Cosmos 1607 - Pass Details

Date: 16 June 2025
Orbit: 930 x 971 km, 65.0° (Epoch: 07 July)

Event Time Altitude Azimuth Distance (km) Brightness Sun altitude
Exits shadow 04:40:24 32° 249° (WSW) 1,571 4.6 -19.8°
Maximum altitude 04:42:51 47° 301° (WNW) 1,231 4.4 -19.4°
Drops below altitude 10° 04:48:49 10° 14° (NNE) 2,658 7.1 -18.5°
Sets 04:51:28 0° 21° (NNE) 3,600 8.1 -18.1°
